| time (UTC) | temp C | wind direction | speed KPH | gust KPH | rain 1hr cm | rain 24hr cm | rain mn cm | humidity % | barometer mb |
| 20260504050105 | 11 | 250 | 8.0 | 17.7 | 0.00 | 0.00 | 0.00 | 57 | 1009.3 |
| 20260504044537 | 11 | 256 | 8.0 | 16.1 | 0.00 | 0.00 | 0.00 | 57 | 1009.3 |
| 20260504043035 | 11 | 191 | 6.4 | 16.1 | 0.00 | 0.00 | 0.00 | 58 | 1009.4 |
| 20260504041535 | 11 | 241 | 6.4 | 16.1 | 0.00 | 0.00 | 0.00 | 60 | 1009.4 |
| 20260504040032 | 11 | 206 | 6.4 | 14.5 | 0.00 | 0.00 | 0.00 | 61 | 1009.5 |
| 20260504034540 | 10 | 236 | 6.4 | 14.5 | 0.00 | 0.00 | 0.00 | 63 | 1009.6 |
| 20260504033031 | 10 | 235 | 3.2 | 9.7 | 0.00 | 0.00 | 0.00 | 66 | 1009.9 |
| 20260504031528 | 10 | 277 | 4.8 | 11.3 | 0.00 | 0.00 | 0.00 | 67 | 1010.2 |
| 20260504030037 | 10 | 240 | 3.2 | 8.0 | 0.00 | 0.00 | 0.00 | 70 | 1010.2 |
| 20260504024527 | 10 | 236 | 3.2 | 11.3 | 0.00 | 0.00 | 0.00 | 72 | 1010.2 |
| 20260504023026 | 9 | 246 | 4.8 | 9.7 | 0.00 | 0.00 | 0.00 | 73 | 1010.4 |
| 20260504021525 | 9 | 244 | 3.2 | 11.3 | 0.00 | 0.00 | 0.00 | 74 | 1010.7 |
| 20260504020028 | 9 | 252 | 4.8 | 16.1 | 0.00 | 0.00 | 0.00 | 75 | 1010.8 |
| 20260504014525 | 10 | 203 | 8.0 | 25.7 | 0.00 | 0.00 | 0.00 | 74 | 1011.0 |
| 20260504013026 | 11 | 328 | 14.5 | 27.4 | 0.00 | 0.00 | 0.00 | 65 | 1011.1 |
| 20260504011523 | 11 | 279 | 11.3 | 30.6 | 0.00 | 0.00 | 0.00 | 60 | 1010.7 |
| 20260504010021 | 11 | 272 | 11.3 | 32.2 | 0.00 | 0.00 | 0.00 | 57 | 1010.4 |
| 20260504004523 | 12 | 259 | 22.5 | 40.2 | 0.00 | 0.00 | 0.00 | 54 | 1010.3 |
| 20260504003019 | 12 | 242 | 16.1 | 30.6 | 0.00 | 0.00 | 0.00 | 52 | 1010.1 |
| 20260504001518 | 12 | 272 | 14.5 | 27.4 | 0.00 | 0.00 | 0.00 | 50 | 1010.0 |
| 20260504000017 | 12 | 246 | 6.4 | 12.9 | 0.00 | 0.00 | 0.00 | 50 | 1009.7 |
| 20260503234522 | 12 | 256 | 11.3 | 22.5 | 0.00 | 0.00 | 0.00 | 50 | 1009.6 |
| 20260503233015 | 11 | 226 | 4.8 | 29.0 | 0.00 | 0.00 | 0.00 | 55 | 1009.8 |
| 20260503231518 | 11 | 271 | 11.3 | 27.4 | 0.00 | 0.00 | 0.00 | 52 | 1010.4 |
| 20260503230014 | 12 | 261 | 14.5 | 25.7 | 0.00 | 0.00 | 0.00 | 51 | 1010.6 |
| 20260503224514 | 12 | 290 | 8.0 | 16.1 | 0.00 | 0.00 | 0.00 | 50 | 1010.3 |
| 20260503223021 | 12 | 217 | 4.8 | 17.7 | 0.00 | 0.00 | 0.00 | 50 | 1010.1 |
| 20260503221511 | 12 | 270 | 6.4 | 16.1 | 0.00 | 0.00 | 0.00 | 49 | 1010.0 |
| 20260503220011 | 12 | 243 | 11.3 | 17.7 | 0.00 | 0.00 | 0.00 | 49 | 1009.9 |
| 20260503214504 | 12 | 278 | 9.7 | 20.9 | 0.00 | 0.00 | 0.00 | 50 | 1010.2 |
| 20260503213133 | 12 | 259 | 11.3 | 19.3 | 0.00 | 0.00 | 0.00 | 50 | 1010.2 |
| 20260503211620 | 11 | 266 | 11.3 | 20.9 | 0.00 | 0.00 | 0.00 | 48 | 1010.1 |
| 20260503210056 | 11 | 248 | 8.0 | 19.3 | 0.00 | 0.00 | 0.00 | 50 | 1010.2 |
| 20260503204604 | 11 | 269 | 9.7 | 20.9 | 0.00 | 0.00 | 0.00 | 50 | 1010.3 |
| 20260503203051 | 11 | 252 | 8.0 | 25.7 | 0.00 | 0.00 | 0.00 | 54 | 1010.7 |
| 20260503201550 | 11 | 267 | 8.0 | 20.9 | 0.00 | 0.00 | 0.00 | 54 | 1010.7 |
| 20260503200050 | 11 | 293 | 12.9 | 22.5 | 0.00 | 0.00 | 0.00 | 53 | 1011.1 |
| 20260503194547 | 11 | 299 | 8.0 | 19.3 | 0.00 | 0.00 | 0.00 | 54 | 1011.2 |
| 20260503193046 | 11 | 288 | 11.3 | 22.5 | 0.00 | 0.00 | 0.00 | 53 | 1011.2 |
| 20260503191600 | 11 | 280 | 9.7 | 19.3 | 0.00 | 0.00 | 0.00 | 52 | 1011.4 |
| 20260503190047 | 11 | 266 | 6.4 | 20.9 | 0.00 | 0.00 | 0.00 | 50 | 1011.5 |
| 20260503184600 | 11 | 289 | 8.0 | 20.9 | 0.00 | 0.00 | 0.00 | 51 | 1011.6 |
| 20260503183046 | 11 | 246 | 12.9 | 25.7 | 0.00 | 0.00 | 0.00 | 48 | 1011.7 |
| 20260503181540 | 11 | 261 | 11.3 | 24.1 | 0.00 | 0.00 | 0.00 | 49 | 1012.0 |
| 20260503180038 | 11 | 272 | 14.5 | 25.7 | 0.00 | 0.00 | 0.00 | 46 | 1012.1 |
| 20260503174545 | 11 | 203 | 8.0 | 25.7 | 0.00 | 0.00 | 0.00 | 47 | 1012.2 |
| 20260503173034 | 11 | 229 | 9.7 | 24.1 | 0.00 | 0.00 | 0.00 | 46 | 1012.4 |
| 20260503171534 | 10 | 314 | 12.9 | 25.7 | 0.00 | 0.00 | 0.00 | 46 | 1012.6 |
| 20260503081515 | 2 | 265 | 0.0 | 3.2 | 0.00 | 0.00 | 0.00 | 86 | 1014.0 |